Terug naar catalogus

GALAXY 10R

ActiefCommunicatieGEO
NORAD 26056·PAYLOAD·🇺🇸 United States

Gelanceerd Jan 25, 2000 vanaf Guiana Space Centre

Loading…

TLE

VersSource: Space-Track

Epoch: Sep 14, 2026, 13:20 UTC

1 26056U 00002A   26257.55584909  .00000083  00000-0  00000-0 0  9999
2 26056  12.3138  30.4729 0007318 172.7893 203.7068  0.99639623 97223

Volg GALAXY 10R in realtime met AllMySat

Download on the App Store